Weather History for Indiana, PA

Change the Weather History Date:

Thursday, March 20, 2014

  Actual Average Record
Temperature  
Mean Temperature 38 °F -  
Max Temperature 44 °F 50 °F 78 °F (1976)
Min Temperature 33 °F 27 °F 3 °F (1956)
Degree Days  
Heating Degree Days 26    
Moisture  
Dew Point 29 °F    
Average Humidity 75    
Maximum Humidity 93    
Minimum Humidity 60    
Precipitation  
Precipitation 0.03 in - - ()
Sea Level Pressure  
Sea Level Pressure 29.91 in    
Wind  
Wind Speed 12 mph (West)    
Max Wind Speed 22 mph    
Max Gust Speed 32 mph    
Visibility 10 miles    
Events      
Averages and records for this station are not official NWS values.
T = Trace of Precipitation, MM = Missing Value Source: NWS Daily Summary

Daily Weather History Graph

Daily Weather History Graph

Search for Another Location

Airport:

Trip Planner

Search our weather history database for the weather conditions in past years. The results will help you decide how hot, cold, wet, or windy it might be!

Date:

Astronomy

Mar. 20, 2014 Rise Set
Actual Time 7:19 AM EDT 7:28 PM EDT
Civil Twilight 6:52 AM EDT 7:55 PM EDT
Nautical Twilight 6:20 AM EDT 8:27 PM EDT
Astronomical Twilight 5:48 AM EDT 9:00 PM EDT
Moon 11:47 PM EDT (3/20) 9:23 AM EDT (3/20)
Length of Visible Light 13h 03m
Length of Day
12h 08m
Waning Gibbous, 84% of the Moon is Illuminated
Mar 20
Waning Gibbous
Mar 23
Last Quarter
Mar 30
New
Apr 7
First Quarter
Apr 15
Full

Hourly Weather History & Observations

Time (EDT) Temp. Windchill Dew Point Humidity Pressure Visibility Wind Dir Wind Speed Gust Speed Precip Events Conditions
12:15 AM 44.6 °F 39.7 °F 42.8 °F 93% 29.79 in 10.0 mi WSW 9.2 mph - N/A   Overcast
12:35 AM 44.6 °F 39.2 °F 42.8 °F 93% 29.79 in 7.0 mi West 10.4 mph 18.4 mph 0.01 in   Overcast
12:55 AM 44.6 °F 39.7 °F 42.8 °F 93% 29.78 in 10.0 mi West 9.2 mph - 0.03 in   Overcast
1:15 AM 44.6 °F 38.4 °F 42.8 °F 93% 29.78 in 7.0 mi West 12.7 mph 18.4 mph N/A   Overcast
1:35 AM 44.6 °F 38.4 °F 41.0 °F 87% 29.79 in 10.0 mi West 12.7 mph 28.8 mph N/A   Overcast
2:15 AM 42.8 °F 34.8 °F 39.2 °F 87% 29.81 in 10.0 mi West 17.3 mph 26.5 mph N/A   Overcast
2:35 AM 42.8 °F 34.8 °F 37.4 °F 81% 29.81 in 10.0 mi WNW 17.3 mph 26.5 mph N/A   Overcast
2:55 AM 41.0 °F 33.1 °F 37.4 °F 87% 29.82 in 10.0 mi WNW 15.0 mph 21.9 mph N/A   Overcast
3:15 AM 41.0 °F 31.6 °F 35.6 °F 81% 29.83 in 10.0 mi West 20.7 mph 32.2 mph N/A   Overcast
3:35 AM 39.2 °F 31.6 °F 35.6 °F 87% 29.83 in 10.0 mi West 12.7 mph 20.7 mph N/A   Overcast
3:55 AM 39.2 °F 30.5 °F 33.8 °F 81% 29.83 in 10.0 mi WNW 16.1 mph 25.3 mph N/A   Overcast
4:15 AM 39.2 °F 32.5 °F 35.6 °F 87% 29.84 in 10.0 mi West 10.4 mph 20.7 mph N/A   Overcast
4:35 AM 37.4 °F 29.3 °F 35.6 °F 93% 29.84 in 10.0 mi West 12.7 mph 20.7 mph N/A   Overcast
4:55 AM 37.4 °F 29.8 °F 33.8 °F 87% 29.84 in 10.0 mi West 11.5 mph 18.4 mph N/A   Overcast
5:15 AM 37.4 °F 30.8 °F 33.8 °F 87% 29.85 in 10.0 mi WNW 9.2 mph 23.0 mph N/A   Overcast
5:35 AM 37.4 °F 29.3 °F 33.8 °F 87% 29.85 in 7.0 mi West 12.7 mph 24.2 mph N/A   Overcast
5:55 AM 35.6 °F 29.2 °F 33.8 °F 93% 29.85 in 10.0 mi West 8.1 mph - N/A   Overcast
6:15 AM 35.6 °F 28.6 °F 32.0 °F 87% 29.86 in 10.0 mi WNW 9.2 mph - N/A   Overcast
6:35 AM 35.6 °F 29.2 °F 32.0 °F 87% 29.86 in 10.0 mi West 8.1 mph - N/A   Overcast
6:55 AM 35.6 °F 28.0 °F 32.0 °F 87% 29.86 in 10.0 mi WNW 10.4 mph - N/A   Overcast
7:15 AM 35.6 °F 28.0 °F 32.0 °F 87% 29.86 in 10.0 mi WNW 10.4 mph - N/A   Overcast
7:35 AM 35.6 °F 25.9 °F 32.0 °F 87% 29.87 in 10.0 mi West 16.1 mph 21.9 mph N/A   Overcast
7:55 AM 35.6 °F 27.5 °F 32.0 °F 87% 29.87 in 10.0 mi West 11.5 mph - N/A   Overcast
8:15 AM 35.6 °F 25.9 °F 30.2 °F 81% 29.88 in 10.0 mi West 16.1 mph 25.3 mph N/A   Overcast
8:35 AM 35.6 °F 24.2 °F 28.4 °F 75% 29.88 in 10.0 mi West 21.9 mph 28.8 mph N/A   Overcast
8:55 AM 35.6 °F 26.2 °F 28.4 °F 75% 29.90 in 10.0 mi West 15.0 mph 25.3 mph N/A   Overcast
9:15 AM 35.6 °F 26.6 °F 26.6 °F 70% 29.90 in 10.0 mi West 13.8 mph 24.2 mph N/A   Overcast
9:35 AM 35.6 °F 25.2 °F 26.6 °F 70% 29.91 in 10.0 mi West 18.4 mph 23.0 mph N/A   Overcast
9:55 AM 33.8 °F 24.8 °F 28.4 °F 81% 29.92 in 7.0 mi West 12.7 mph 23.0 mph N/A   Overcast
10:15 AM 33.8 °F 24.8 °F 28.4 °F 81% 29.93 in 5.0 mi West 12.7 mph 23.0 mph N/A   Overcast
10:35 AM 33.8 °F 25.8 °F 28.4 °F 81% 29.94 in 4.0 mi West 10.4 mph 20.7 mph N/A   Overcast
10:55 AM 33.8 °F 24.8 °F 30.2 °F 87% 29.94 in 3.0 mi West 12.7 mph - N/A   Overcast
11:15 AM 33.8 °F 25.8 °F 30.2 °F 87% 29.94 in 5.0 mi West 10.4 mph - N/A   Overcast
11:35 AM 33.8 °F 22.8 °F 28.4 °F 81% 29.94 in 7.0 mi West 18.4 mph 23.0 mph N/A   Overcast
11:55 AM 35.6 °F 27.1 °F 26.6 °F 70% 29.94 in 10.0 mi WNW 12.7 mph 19.6 mph N/A   Overcast
12:15 PM 33.8 °F 22.8 °F 24.8 °F 70% 29.95 in 10.0 mi West 18.4 mph 28.8 mph N/A   Overcast
12:35 PM 33.8 °F 22.2 °F 24.8 °F 70% 29.94 in 10.0 mi West 20.7 mph 26.5 mph N/A   Overcast
12:55 PM 33.8 °F 23.5 °F 24.8 °F 70% 29.94 in 10.0 mi West 16.1 mph - N/A   Overcast
1:15 PM 33.8 °F 24.8 °F 24.8 °F 70% 29.94 in 10.0 mi West 12.7 mph 23.0 mph N/A   Overcast
1:35 PM 35.6 °F 27.5 °F 24.8 °F 65% 29.94 in 10.0 mi West 11.5 mph 25.3 mph N/A   Overcast
1:55 PM 35.6 °F 28.0 °F 24.8 °F 65% 29.94 in 10.0 mi West 10.4 mph 18.4 mph N/A   Overcast
2:15 PM 35.6 °F 26.2 °F 24.8 °F 65% 29.93 in 10.0 mi West 15.0 mph 26.5 mph N/A   Overcast
2:35 PM 35.6 °F 24.8 °F 24.8 °F 65% 29.93 in 10.0 mi West 19.6 mph 29.9 mph N/A   Overcast
2:55 PM 35.6 °F 25.2 °F 26.6 °F 70% 29.93 in 10.0 mi West 18.4 mph 26.5 mph N/A   Overcast
3:15 PM 35.6 °F 24.8 °F 24.8 °F 65% 29.93 in 10.0 mi West 19.6 mph 26.5 mph N/A   Overcast
3:35 PM 35.6 °F 27.1 °F 24.8 °F 65% 29.94 in 10.0 mi West 12.7 mph 21.9 mph N/A   Overcast
3:55 PM 35.6 °F 26.6 °F 24.8 °F 65% 29.94 in 10.0 mi West 13.8 mph - N/A   Overcast
4:15 PM 35.6 °F 25.9 °F 24.8 °F 65% 29.94 in 10.0 mi West 16.1 mph 20.7 mph N/A   Overcast
4:35 PM 35.6 °F 25.5 °F 24.8 °F 65% 29.94 in 10.0 mi West 17.3 mph 23.0 mph N/A   Overcast
4:55 PM 35.6 °F 25.9 °F 23.0 °F 60% 29.94 in 10.0 mi West 16.1 mph 25.3 mph N/A   Overcast
5:15 PM 35.6 °F 28.6 °F 23.0 °F 60% 29.95 in 10.0 mi WNW 9.2 mph - N/A   Overcast
5:35 PM 35.6 °F 28.6 °F 23.0 °F 60% 29.95 in 10.0 mi West 9.2 mph - N/A   Overcast
5:55 PM 35.6 °F 28.6 °F 23.0 °F 60% 29.96 in 10.0 mi West 9.2 mph 23.0 mph N/A   Overcast
6:15 PM 35.6 °F 29.2 °F 23.0 °F 60% 29.96 in 10.0 mi WNW 8.1 mph - N/A   Overcast
6:35 PM 35.6 °F 27.5 °F 23.0 °F 60% 29.97 in 10.0 mi West 11.5 mph 17.3 mph N/A   Overcast
6:55 PM 35.6 °F 29.9 °F 24.8 °F 65% 29.96 in 10.0 mi West 6.9 mph - N/A   Overcast
7:15 PM 35.6 °F 29.9 °F 24.8 °F 65% 29.97 in 10.0 mi West 6.9 mph 17.3 mph N/A   Overcast
7:35 PM 35.6 °F 27.1 °F 24.8 °F 65% 29.97 in 10.0 mi West 12.7 mph 19.6 mph N/A   Overcast
7:55 PM 35.6 °F 30.7 °F 24.8 °F 65% 29.97 in 10.0 mi WNW 5.8 mph 9.2 mph N/A   Overcast
8:15 PM 35.6 °F 28.6 °F 26.6 °F 70% 29.98 in 10.0 mi West 9.2 mph - N/A   Overcast
8:35 PM 35.6 °F 29.2 °F 26.6 °F 70% 29.98 in 10.0 mi West 8.1 mph - N/A   Overcast
8:55 PM 35.6 °F 29.2 °F 26.6 °F 70% 29.99 in 10.0 mi West 8.1 mph - N/A   Overcast
9:15 PM 35.6 °F 29.9 °F 26.6 °F 70% 29.99 in 10.0 mi WNW 6.9 mph - N/A   Overcast
9:35 PM 35.6 °F 30.7 °F 26.6 °F 70% 29.99 in 10.0 mi West 5.8 mph - N/A   Overcast
9:55 PM 35.6 °F 32.8 °F 26.6 °F 70% 29.99 in 10.0 mi West 3.5 mph - N/A   Overcast
10:15 PM 35.6 °F 31.7 °F 26.6 °F 70% 29.99 in 10.0 mi West 4.6 mph - N/A   Overcast
10:35 PM 35.6 °F 29.9 °F 26.6 °F 70% 29.99 in 10.0 mi WNW 6.9 mph - N/A   Overcast
10:55 PM 35.6 °F 29.2 °F 24.8 °F 65% 29.99 in 10.0 mi West 8.1 mph 16.1 mph N/A   Overcast
11:15 PM 35.6 °F 29.2 °F 24.8 °F 65% 29.99 in 10.0 mi WNW 8.1 mph - N/A   Overcast
11:35 PM 35.6 °F 29.9 °F 24.8 °F 65% 30.00 in 10.0 mi WNW 6.9 mph - N/A   Overcast
11:55 PM 35.6 °F 29.2 °F 26.6 °F 70% 30.00 in 10.0 mi NW 8.1 mph - N/A   Overcast